Muscle Shoals, AL

4:11 PM CST on December 05, 2019 (GMT -0600)
Northwest Alabama Regional

Weather History for KMSL - October, 2019

Change the Weather History Date:

Sunday, October 6, 2019

  Actual Average Record
Temperature  
Mean Temperature 82 °F 65 °F  
Max Temperature 90 °F 78 °F 94 °F (1938)
Min Temperature 73 °F 53 °F 37 °F (1974)
Degree Days  
Heating Degree Days 0 3  
Month to date heating degree days 0 14  
Since 1 July heating degree days 0 29  
Cooling Degree Days 17 3  
Month to date cooling degree days 105 21  
Year to date cooling degree days 2463 1823  
Growing Degree Days 30 (Base 50)    
Moisture  
Dew Point 66 °F    
Average Humidity 64    
Maximum Humidity 81    
Minimum Humidity 47    
Precipitation  
Precipitation 0.00 in 0.11 in 2.05 in (1954)
Month to date precipitation 0.00 0.65  
Year to date precipitation 46.52 40.08  
Snow  
Snow 0.00 in - - ()
Month to date snowfall 0.0  
Since 1 July snowfall 0.0  
Since 1 September snowfall 0.0  
Snow Depth 0.00 in    
Sea Level Pressure  
Sea Level Pressure 30.05 in    
Wind  
Wind Speed 7 mph (SE)    
Max Wind Speed 16 mph    
Max Gust Speed 21 mph    
Visibility 10 miles    
Events Thunderstorm    
T = Trace of Precipitation, MM = Missing Value Source: NWS Daily Summary

Daily Weather History Graph

Daily Weather History Graph

Search for Another Location

Airport or City:

Astronomy

Oct. 06, 2019 Rise Set
Actual Time 6:48 AM CDT 6:27 PM CDT
Civil Twilight 6:23 AM CDT 6:53 PM CDT
Nautical Twilight 5:54 AM CDT 7:22 PM CDT
Astronomical Twilight 5:25 AM CDT 7:51 PM CDT
Moon 2:48 PM CDT (10/6) 12:04 AM CDT (10/6)
Length of Visible Light 12h 29m
Length of Day
11h 39m
First Quarter, 60% of the Moon is Illuminated
Oct 6
First Quarter
Oct 13
Full
Oct 21
Last Quarter
Oct 27
New
Nov 4
First Quarter

Hourly Weather History & Observations

Time (CDT) Temp. Heat Index Dew Point Humidity Pressure Visibility Wind Dir Wind Speed Gust Speed Precip Events Conditions
12:53 AM 75.0 °F - 66.0 °F 73% 30.04 in 10.0 mi SE 9.2 mph - N/A   Partly Cloudy
1:53 AM 73.9 °F - 66.9 °F 79% 30.03 in 10.0 mi SE 10.4 mph - N/A   Partly Cloudy
2:53 AM 73.9 °F - 66.9 °F 79% 30.04 in 10.0 mi ESE 4.6 mph - N/A   Scattered Clouds
3:53 AM 73.0 °F - 66.9 °F 81% 30.03 in 10.0 mi SE 5.8 mph - N/A   Clear
4:53 AM 73.0 °F - 66.9 °F 81% 30.06 in 10.0 mi Calm Calm - N/A   Partly Cloudy
5:08 AM 73.9 °F - 66.9 °F 79% 30.09 in 10.0 mi Calm Calm - N/A   Mostly Cloudy
5:53 AM 73.9 °F - 66.9 °F 79% 30.07 in 10.0 mi ESE 4.6 mph - N/A   Overcast
6:53 AM 73.9 °F - 66.9 °F 79% 30.10 in 10.0 mi ESE 4.6 mph - N/A   Overcast
7:53 AM 73.9 °F - 66.9 °F 79% 30.11 in 10.0 mi SE 6.9 mph - N/A   Overcast
8:53 AM 75.9 °F - 66.9 °F 74% 30.12 in 10.0 mi South 8.1 mph - N/A   Overcast
9:53 AM 79.0 °F - 66.0 °F 64% 30.12 in 10.0 mi South 11.5 mph - N/A   Scattered Clouds
10:53 AM 82.9 °F 85.0 °F 66.0 °F 56% 30.11 in 10.0 mi South 13.8 mph 20.7 mph N/A   Mostly Cloudy
11:53 AM 87.1 °F 89.9 °F 66.9 °F 51% 30.10 in 10.0 mi South 10.4 mph 18.4 mph N/A   Partly Cloudy
12:53 PM 86.0 °F 87.6 °F 64.9 °F 49% 30.08 in 10.0 mi SSE 4.6 mph - N/A   Overcast
1:53 PM 88.0 °F 89.6 °F 64.9 °F 46% 30.05 in 10.0 mi South 10.4 mph - N/A   Mostly Cloudy
2:53 PM 88.0 °F 90.3 °F 66.0 °F 48% 30.02 in 10.0 mi South 11.5 mph - N/A   Mostly Cloudy
3:28 PM 88.0 °F 89.6 °F 64.9 °F 46% 30.03 in 10.0 mi SSE 10.4 mph - N/A Thunderstorm Thunderstorm
3:53 PM 87.1 °F 88.9 °F 64.9 °F 48% 30.01 in 10.0 mi South 8.1 mph - N/A Thunderstorm Thunderstorm
4:07 PM 84.9 °F 87.1 °F 66.0 °F 53% 30.03 in 10.0 mi NNW 8.1 mph - N/A Thunderstorm Mostly Cloudy
4:22 PM 82.9 °F 85.0 °F 66.0 °F 56% 30.03 in 10.0 mi North 4.6 mph - N/A   Mostly Cloudy
4:53 PM 84.0 °F 86.5 °F 66.9 °F 56% 30.03 in 10.0 mi NE 5.8 mph - N/A   Partly Cloudy
5:53 PM 79.0 °F - 66.9 °F 66% 30.01 in 10.0 mi ENE 8.1 mph - N/A   Mostly Cloudy
6:53 PM 78.1 °F - 66.9 °F 68% 30.01 in 10.0 mi East 3.5 mph - N/A   Mostly Cloudy
7:53 PM 78.1 °F - 66.9 °F 68% 30.02 in 10.0 mi SSE 4.6 mph - N/A   Clear
8:53 PM 78.1 °F - 64.9 °F 64% 30.03 in 10.0 mi Calm Calm - N/A   Clear
9:53 PM 77.0 °F - 66.0 °F 69% 30.03 in 10.0 mi SE 9.2 mph - N/A   Clear
10:53 PM 77.0 °F - 66.0 °F 69% 30.04 in 10.0 mi SE 6.9 mph - N/A   Partly Cloudy
11:53 PM 77.0 °F - 64.9 °F 66% 30.06 in 10.0 mi SSE 9.2 mph - N/A   Scattered Clouds